Location: Asheville, NC
(35.6000°N, 82.5500°W)
Time: 18:43:30
(UTC-05:00)

Vanguard 3 - Pass Details

Date: 15 February 2018
Orbit: 508 x 3264 km, 33.3° (Epoch: 17 February)

Event Time Altitude Azimuth Distance (km) Brightness Sun altitude
Rises 19:03:38 0° 262° (W) 2,592 12.0 -11.1°
Reaches altitude 10° 19:05:40 10° 259° (W) 1,729 10.4 -11.5°
Maximum altitude 19:09:20 66° 177° (S) 633 6.6 -12.2°
Enters shadow 19:12:47 18° 98° (E) 1,690 8.2 -12.9°
